,,,PA_Meas_PMT16A,,PR_Meas_QMR101_102,,RH_Meas_QMH101,,SR_Meas_QMS101,,TA_Meas_QMH101,,GenWind,,GenWind,
date,time,status,PA,status,PR,status,RH,status,SR,status,TA,status,DirAvg,status,SpdAvg,
2009-10-25, 00:00:05,VALID,1000.28,VALID,0,VALID,86.0545,VALID,0,VALID,24.2848,VALID,140,VALID,0.788281,
2009-10-25, 00:01:05,VALID,1000.29,VALID,0,VALID,86.4054,VALID,0,VALID,24.2458,VALID,167,VALID,0.769531,
2009-10-25, 00:02:05,VALID,1000.27,VALID,0,VALID,86.558,VALID,0,VALID,24.2476,VALID,166,VALID,1.07656,
2009-10-25, 00:03:05,VALID,1000.22,VALID,0,VALID,86.7946,VALID,0,VALID,24.2067,VALID,166,VALID,1.06445,
2009-10-25, 00:04:05,VALID,1000.24,VALID,0,VALID,87.0921,VALID,0,VALID,24.1872,VALID,179,VALID,0.921484,
2009-10-25, 00:05:05,VALID,1000.22,VALID,0,VALID,87.4049,VALID,0,VALID,24.2067,VALID,179,VALID,0.863672,
2009-10-25, 00:06:05,VALID,1000.21,VALID,0,VALID,87.3439,VALID,0,VALID,24.1872,VALID,179,VALID,0.434375,
2009-10-25, 00:07:05,VALID,1000.2,VALID,0,VALID,87.115,VALID,0,VALID,24.2067,VALID,179,VALID,0.441016,
2009-10-25, 00:08:05,VALID,1000.21,VALID,0,VALID,86.9319,VALID,0,VALID,24.2067,VALID,179,VALID,0.302344,
2009-10-25, 00:09:05,VALID,1000.21,VALID,0,VALID,86.9624,VALID,0,VALID,24.2067,VALID,179,VALID,0.0324219,
2009-10-25, 00:10:05,VALID,1000.21,VALID,0,VALID,87.0845,VALID,0,VALID,24.1872,VALID,179,VALID,0.431641,
2009-10-25, 00:11:05,VALID,1000.21,VALID,0,VALID,87.2905,VALID,0,VALID,24.1305,VALID,244,VALID,0.340234,
2009-10-25, 00:12:05,VALID,1000.22,VALID,0,VALID,87.7864,VALID,0,VALID,24.0329,VALID,244,VALID,0.202734,
2009-10-25, 00:13:05,VALID,1000.19,VALID,0,VALID,88.2747,VALID,0,VALID,23.9744,VALID,244,VALID,0,
2009-10-25, 00:14:05,VALID,1000.23,VALID,0,VALID,88.5875,VALID,0,VALID,23.9159,VALID,244,VALID,0,
2009-10-25, 00:15:05,VALID,1000.22,VALID,0,VALID,88.824,VALID,0,VALID,23.8573,VALID,243,VALID,0.165234,
2009-10-25, 00:16:05,VALID,1000.2,VALID,0,VALID,88.8088,VALID,0.112286,VALID,23.8378,VALID,213,VALID,0.225781,
2009-10-25, 00:17:05,VALID,1000.17,VALID,0,VALID,89.0682,VALID,0.112286,VALID,23.7775,VALID,130,VALID,0.359375,
2009-10-25, 00:18:05,VALID,1000.18,VALID,0,VALID,89.0224,VALID,0.112286,VALID,23.7384,VALID,130,VALID,0.561328,
2009-10-25, 00:19:05,VALID,1000.15,VALID,0,VALID,89.0606,VALID,0.112286,VALID,23.6799,VALID,130,VALID,0.342969,
2009-10-25, 00:20:05,VALID,1000.14,VALID,0,VALID,89.2589,VALID,0,VALID,23.6409,VALID,130,VALID,0.0988281,
2009-10-25, 00:21:05,VALID,1000.09,VALID,0,VALID,89.5412,VALID,0.112286,VALID,23.6409,VALID,130,VALID,0.0277344,
2009-10-25, 00:22:05,VALID,1000.07,VALID,0,VALID,89.6328,VALID,0,VALID,23.6019,VALID,130,VALID,0,
2009-10-25, 00:23:05,VALID,1000.07,VALID,0,VALID,89.8006,VALID,0,VALID,23.5823,VALID,130,VALID,0.0695312,
2009-10-25, 00:24:05,VALID,1000.05,VALID,0,VALID,89.9227,VALID,0,VALID,23.5628,VALID,130,VALID,0.307031,
2009-10-25, 00:25:05,VALID,1000.07,VALID,0,VALID,90.06,VALID,0.112286,VALID,23.5646,VALID,130,VALID,0.580859,
2009-10-25, 00:26:05,VALID,1000.07,VALID,0,VALID,90.1516,VALID,0.112286,VALID,23.5628,VALID,130,VALID,0.566406,
2009-10-25, 00:27:05,VALID,1000.06,VALID,0,VALID,89.9914,VALID,0.112286,VALID,23.5433,VALID,130,VALID,0.4,
2009-10-25, 00:28:04,VALID,1000.05,VALID,0,VALID,89.8464,VALID,0.112286,VALID,23.5433,VALID,130,VALID,0.0394531,
2009-10-25, 00:29:04,VALID,1000.04,VALID,0,VALID,90.2584,VALID,0.112286,VALID,23.5451,VALID,285,VALID,0.582422,
2009-10-25, 00:30:04,VALID,999.99,VALID,0,VALID,90.3423,VALID,0,VALID,23.5238,VALID,285,VALID,0.541406,
2009-10-25, 00:31:04,VALID,999.992,VALID,0,VALID,90.3271,VALID,0,VALID,23.5043,VALID,285,VALID,0.532031,
2009-10-25, 00:32:04,VALID,999.976,VALID,0,VALID,90.411,VALID,0.112286,VALID,23.4866,VALID,335,VALID,0.634766,
2009-10-25, 00:33:04,VALID,999.958,VALID,0,VALID,90.6857,VALID,0.112286,VALID,23.4458,VALID,16,VALID,0.708984,
2009-10-25, 00:34:04,VALID,999.938,VALID,0,VALID,90.7467,VALID,0.112286,VALID,23.4458,VALID,33,VALID,0.53125,
2009-10-25, 00:35:04,VALID,999.932,VALID,0,VALID,90.2737,VALID,0.112286,VALID,23.4067,VALID,33,VALID,0.614453,
2009-10-25, 00:36:04,VALID,999.912,VALID,0,VALID,90.7696,VALID,0.112286,VALID,23.3677,VALID,70,VALID,0.855469,
2009-10-25, 00:37:04,VALID,999.922,VALID,0,VALID,91.1129,VALID,0.112286,VALID,23.3677,VALID,70,VALID,0.768359,
2009-10-25, 00:38:04,VALID,999.902,VALID,0,VALID,91.2503,VALID,0.112286,VALID,23.3677,VALID,70,VALID,0.748047,
2009-10-25, 00:39:04,VALID,999.914,VALID,0,VALID,91.2579,VALID,0.112286,VALID,23.3872,VALID,70,VALID,0.789844,
2009-10-25, 00:40:04,VALID,999.915,VALID,0,VALID,91.2731,VALID,0.112286,VALID,23.3695,VALID,70,VALID,0.629297,
2009-10-25, 00:41:04,VALID,999.849,VALID,0,VALID,91.1434,VALID,0,VALID,23.3092,VALID,70,VALID,0.515625,
2009-10-25, 00:42:04,VALID,999.875,VALID,0,VALID,91.1053,VALID,0,VALID,23.2915,VALID,72,VALID,0.6625,
2009-10-25, 00:43:04,VALID,999.862,VALID,0,VALID,91.3494,VALID,0.112286,VALID,23.2507,VALID,83,VALID,0.776563,
2009-10-25, 00:44:04,VALID,999.858,VALID,0,VALID,91.441,VALID,0.112286,VALID,23.2329,VALID,83,VALID,0.614844,
2009-10-25, 00:45:04,VALID,999.868,VALID,0,VALID,91.6546,VALID,0,VALID,23.2134,VALID,90,VALID,0.590234,
2009-10-25, 00:46:04,VALID,999.912,VALID,0,VALID,91.8683,VALID,0,VALID,23.2134,VALID,90,VALID,0.669141,
2009-10-25, 00:47:04,VALID,999.911,VALID,0,VALID,92.0361,VALID,0,VALID,23.2134,VALID,90,VALID,0.706641,
2009-10-25, 00:48:04,VALID,999.881,VALID,0,VALID,92.0361,VALID,0,VALID,23.2542,VALID,90,VALID,0.685938,
2009-10-25, 00:49:04,VALID,999.912,VALID,0,VALID,92.0209,VALID,0,VALID,23.2329,VALID,91,VALID,0.840625,
2009-10-25, 00:50:04,VALID,999.959,VALID,0,VALID,92.0666,VALID,0,VALID,23.1939,VALID,95,VALID,0.837109,
2009-10-25, 00:51:04,VALID,999.944,VALID,0,VALID,92.0437,VALID,0,VALID,23.1744,VALID,96,VALID,0.582812,
2009-10-25, 00:52:04,VALID,999.968,VALID,0,VALID,92.0819,VALID,0,VALID,23.1549,VALID,96,VALID,0.625,
2009-10-25, 00:53:04,VALID,999.972,VALID,0,VALID,92.1124,VALID,0,VALID,23.1549,VALID,96,VALID,0.326172,
2009-10-25, 00:54:04,VALID,999.981,VALID,0,VALID,92.1277,VALID,0,VALID,23.1566,VALID,96,VALID,0.253516,
2009-10-25, 00:55:04,VALID,999.943,VALID,0,VALID,92.0971,VALID,0,VALID,23.1176,VALID,96,VALID,0.267188,
2009-10-25, 00:56:04,VALID,999.893,VALID,0,VALID,92.1048,VALID,0,VALID,23.0981,VALID,96,VALID,0.316406,
2009-10-25, 00:57:04,VALID,999.855,VALID,0,VALID,92.0971,VALID,0,VALID,23.0378,VALID,96,VALID,0.0785156,
2009-10-25, 00:58:04,VALID,999.901,VALID,0,VALID,92.204,VALID,0,VALID,23.0591,VALID,96,VALID,0.394141,
2009-10-25, 00:59:04,VALID,999.898,VALID,0,VALID,92.1887,VALID,0,VALID,23.0183,VALID,347,VALID,0.541016,
2009-10-25, 01:00:04,VALID,999.898,VALID,0,VALID,92.3413,VALID,0,VALID,23.0183,VALID,308,VALID,0.362891,
2009-10-25, 01:01:04,VALID,999.889,VALID,0,VALID,92.4328,VALID,0,VALID,23.0183,VALID,308,VALID,0.520703,
2009-10-25, 01:02:04,VALID,999.866,VALID,0,VALID,92.4481,VALID,0,VALID,22.9988,VALID,308,VALID,0.381641,
2009-10-25, 01:03:04,VALID,999.884,VALID,0,VALID,92.5244,VALID,0,VALID,23.0183,VALID,308,VALID,0.309375,
2009-10-25, 01:04:04,VALID,999.859,VALID,0,VALID,92.4786,VALID,0,VALID,23.0183,VALID,308,VALID,0.285547,
2009-10-25, 01:05:04,VALID,999.838,VALID,0,VALID,92.5168,VALID,0,VALID,22.9988,VALID,308,VALID,0.244922,
2009-10-25, 01:06:04,VALID,999.87,VALID,0,VALID,92.5244,VALID,0,VALID,23.0201,VALID,308,VALID,0.176563,
2009-10-25, 01:07:04,VALID,999.85,VALID,0,VALID,92.5931,VALID,0,VALID,22.9988,VALID,308,VALID,0.078125,
2009-10-25, 01:08:04,VALID,999.844,VALID,0,VALID,92.677,VALID,0,VALID,23.0183,VALID,308,VALID,0.201953,
2009-10-25, 01:09:04,VALID,999.859,VALID,0,VALID,92.6465,VALID,0,VALID,23.0201,VALID,308,VALID,0.201953,
2009-10-25, 01:10:04,VALID,999.86,VALID,0,VALID,92.5473,VALID,0,VALID,22.9793,VALID,308,VALID,0.183984,
2009-10-25, 01:11:04,VALID,999.864,VALID,0,VALID,92.4481,VALID,0,VALID,22.9615,VALID,308,VALID,0.353125,
2009-10-25, 01:12:04,VALID,999.847,VALID,0,VALID,92.6617,VALID,0,VALID,22.9615,VALID,308,VALID,0.492188,
2009-10-25, 01:13:04,VALID,999.84,VALID,0,VALID,92.9059,VALID,0,VALID,22.9793,VALID,308,VALID,0.505469,
2009-10-25, 01:14:04,VALID,999.794,VALID,0,VALID,92.9364,VALID,0,VALID,23.0201,VALID,308,VALID,0.496484,
2009-10-25, 01:15:04,VALID,999.772,VALID,0,VALID,93.0051,VALID,0,VALID,23.0396,VALID,308,VALID,0.601563,
2009-10-25, 01:16:04,VALID,999.759,VALID,0,VALID,93.0432,VALID,0,VALID,23.0591,VALID,48,VALID,0.58125,
2009-10-25, 01:17:04,VALID,999.766,VALID,0,VALID,93.0432,VALID,0,VALID,23.0378,VALID,58,VALID,0.648438,
2009-10-25, 01:18:04,VALID,999.731,VALID,0,VALID,92.9364,VALID,0,VALID,23.0378,VALID,61,VALID,0.774219,
2009-10-25, 01:19:04,VALID,999.715,VALID,0,VALID,92.822,VALID,0,VALID,23.0183,VALID,61,VALID,0.841406,
2009-10-25, 01:20:04,VALID,999.696,VALID,0,VALID,92.7914,VALID,0,VALID,23.0201,VALID,61,VALID,0.965234,
2009-10-25, 01:21:04,VALID,999.675,VALID,0,VALID,92.7304,VALID,0,VALID,22.9988,VALID,61,VALID,0.933984,
2009-10-25, 01:22:04,VALID,999.646,VALID,0,VALID,92.6083,VALID,0,VALID,22.9793,VALID,61,VALID,0.883984,
2009-10-25, 01:23:04,VALID,999.605,VALID,0,VALID,92.5168,VALID,0,VALID,22.9615,VALID,63,VALID,0.912891,
2009-10-25, 01:24:04,VALID,999.613,VALID,0,VALID,92.4634,VALID,0,VALID,22.9013,VALID,67,VALID,0.783984,
2009-10-25, 01:25:04,VALID,999.566,VALID,0,VALID,92.5702,VALID,0,VALID,22.9013,VALID,79,VALID,0.647266,
2009-10-25, 01:26:04,VALID,999.528,VALID,0,VALID,92.5549,VALID,0,VALID,22.8818,VALID,79,VALID,0.636719,
2009-10-25, 01:27:04,VALID,999.572,VALID,0,VALID,92.6007,VALID,0,VALID,22.9013,VALID,79,VALID,0.467578,
2009-10-25, 01:28:04,VALID,999.552,VALID,0,VALID,92.6541,VALID,0,VALID,22.903,VALID,79,VALID,0.502734,
2009-10-25, 01:29:04,VALID,999.53,VALID,0,VALID,92.6236,VALID,0,VALID,22.8623,VALID,79,VALID,0.461328,
2009-10-25, 01:30:04,VALID,999.544,VALID,0,VALID,92.7457,VALID,0,VALID,22.8835,VALID,79,VALID,0.373828,
2009-10-25, 01:31:04,VALID,999.506,VALID,0,VALID,92.7075,VALID,0,VALID,22.8623,VALID,79,VALID,0.272266,
2009-10-25, 01:32:04,VALID,999.513,VALID,0,VALID,92.7609,VALID,0,VALID,22.8623,VALID,79,VALID,0.258984,
2009-10-25, 01:33:04,VALID,999.511,VALID,0,VALID,92.7533,VALID,0,VALID,22.864,VALID,79,VALID,0.111328,
2009-10-25, 01:34:04,VALID,999.514,VALID,0,VALID,92.7457,VALID,0,VALID,22.8445,VALID,79,VALID,0.0324219,
2009-10-25, 01:35:04,VALID,999.494,VALID,0,VALID,92.7075,VALID,0,VALID,22.8037,VALID,79,VALID,0,
2009-10-25, 01:36:04,VALID,999.489,VALID,0,VALID,92.6846,VALID,0,VALID,22.7647,VALID,79,VALID,0,
2009-10-25, 01:37:04,VALID,999.488,VALID,0,VALID,92.6846,VALID,0,VALID,22.7452,VALID,79,VALID,0,
2009-10-25, 01:38:04,VALID,999.506,VALID,0,VALID,92.7228,VALID,0,VALID,22.7469,VALID,79,VALID,0,
2009-10-25, 01:39:04,VALID,999.503,VALID,0,VALID,92.8677,VALID,0,VALID,22.7664,VALID,79,VALID,0,
2009-10-25, 01:40:04,VALID,999.565,VALID,0,VALID,92.9745,VALID,0,VALID,22.7647,VALID,79,VALID,0.188672,
2009-10-25, 01:41:04,VALID,999.52,VALID,0,VALID,93.028,VALID,0,VALID,22.7842,VALID,79,VALID,0,
2009-10-25, 01:42:04,VALID,999.534,VALID,0,VALID,93.0585,VALID,0,VALID,22.8037,VALID,79,VALID,0,
2009-10-25, 01:43:04,VALID,999.535,VALID,0,VALID,93.089,VALID,0,VALID,22.825,VALID,79,VALID,0,
2009-10-25, 01:44:04,VALID,999.529,VALID,0,VALID,93.0966,VALID,0,VALID,22.8037,VALID,79,VALID,0,
2009-10-25, 01:45:04,VALID,999.553,VALID,0,VALID,93.1043,VALID,0,VALID,22.8445,VALID,79,VALID,0,
2009-10-25, 01:46:04,VALID,999.557,VALID,0,VALID,93.0051,VALID,0,VALID,22.7842,VALID,79,VALID,0.385547,
2009-10-25, 01:47:04,VALID,999.586,VALID,0,VALID,93.0508,VALID,0,VALID,22.7647,VALID,79,VALID,0.449609,
2009-10-25, 01:48:04,VALID,999.563,VALID,0,VALID,93.295,VALID,0,VALID,22.8055,VALID,75,VALID,0.691016,
2009-10-25, 01:49:04,VALID,999.608,VALID,0,VALID,93.2645,VALID,0,VALID,22.8232,VALID,75,VALID,0.551172,
2009-10-25, 01:50:04,VALID,999.639,VALID,0,VALID,93.1653,VALID,0,VALID,22.8037,VALID,75,VALID,0.305078,
2009-10-25, 01:51:04,VALID,999.643,VALID,0,VALID,93.1424,VALID,0,VALID,22.786,VALID,75,VALID,0.444531,
2009-10-25, 01:52:04,VALID,999.686,VALID,0,VALID,93.1882,VALID,0,VALID,22.7842,VALID,75,VALID,0.360938,
2009-10-25, 01:53:04,VALID,999.674,VALID,0,VALID,93.1577,VALID,0,VALID,22.7842,VALID,75,VALID,0.261719,
2009-10-25, 01:54:04,VALID,999.717,VALID,0,VALID,93.0356,VALID,0,VALID,22.7062,VALID,75,VALID,0,
2009-10-25, 01:55:04,VALID,999.732,VALID,0,VALID,93.0508,VALID,0,VALID,22.6672,VALID,75,VALID,0,
2009-10-25, 01:56:04,VALID,999.725,VALID,0,VALID,93.1729,VALID,0,VALID,22.7079,VALID,75,VALID,0,
2009-10-25, 01:57:04,VALID,999.743,VALID,0,VALID,93.2645,VALID,0,VALID,22.7274,VALID,75,VALID,0,
2009-10-25, 01:58:04,VALID,999.751,VALID,0,VALID,93.3026,VALID,0,VALID,22.7452,VALID,75,VALID,0,
2009-10-25, 01:59:04,VALID,999.762,VALID,0,VALID,93.3103,VALID,0,VALID,22.7452,VALID,75,VALID,0,
2009-10-25, 02:00:04,VALID,999.758,VALID,0,VALID,93.2874,VALID,0,VALID,22.7647,VALID,75,VALID,0,
2009-10-25, 02:01:04,VALID,999.78,VALID,0,VALID,93.295,VALID,0,VALID,22.7452,VALID,75,VALID,0,
2009-10-25, 02:02:04,VALID,999.794,VALID,0,VALID,93.2721,VALID,0,VALID,22.7452,VALID,75,VALID,0,
2009-10-25, 02:03:04,VALID,999.814,VALID,0,VALID,93.2874,VALID,0,VALID,22.7257,VALID,75,VALID,0,
2009-10-25, 02:04:04,VALID,999.818,VALID,0,VALID,93.2111,VALID,0,VALID,22.685,VALID,75,VALID,0,
2009-10-25, 02:05:04,VALID,999.853,VALID,0,VALID,93.0737,VALID,0,VALID,22.6282,VALID,75,VALID,0,
2009-10-25, 02:06:04,VALID,999.87,VALID,0,VALID,93.295,VALID,0,VALID,22.6282,VALID,70,VALID,0,
2009-10-25, 02:07:04,VALID,999.893,VALID,0,VALID,93.3789,VALID,0,VALID,22.6672,VALID,31,VALID,0,
2009-10-25, 02:08:04,VALID,999.876,VALID,0,VALID,93.501,VALID,0,VALID,22.6867,VALID,31,VALID,0,
2009-10-25, 02:09:04,VALID,999.905,VALID,0,VALID,93.4552,VALID,0,VALID,22.7062,VALID,21,VALID,0.748828,
2009-10-25, 02:10:04,VALID,999.9,VALID,0,VALID,93.4628,VALID,0,VALID,22.7062,VALID,19,VALID,0.698438,
2009-10-25, 02:11:04,VALID,999.939,VALID,0,VALID,93.4247,VALID,0,VALID,22.6867,VALID,10,VALID,0.785937,
2009-10-25, 02:12:04,VALID,999.978,VALID,0,VALID,93.44,VALID,0,VALID,22.6672,VALID,10,VALID,0.685547,
2009-10-25, 02:13:04,VALID,999.987,VALID,0,VALID,93.4781,VALID,0,VALID,22.6867,VALID,10,VALID,0.608594,
2009-10-25, 02:14:04,VALID,1000.01,VALID,0,VALID,93.4323,VALID,0,VALID,22.6672,VALID,10,VALID,0.233594,
2009-10-25, 02:15:04,VALID,999.967,VALID,0,VALID,93.4247,VALID,0.112286,VALID,22.646,VALID,10,VALID,0,
2009-10-25, 02:16:04,VALID,999.959,VALID,0,VALID,93.4094,VALID,0.112286,VALID,22.646,VALID,10,VALID,0,
2009-10-25, 02:17:04,VALID,999.952,VALID,0,VALID,93.356,VALID,0.112286,VALID,22.6264,VALID,10,VALID,0,
2009-10-25, 02:18:04,VALID,999.963,VALID,0,VALID,93.4094,VALID,0.112286,VALID,22.5874,VALID,10,VALID,0.00546875,
2009-10-25, 02:19:04,VALID,999.973,VALID,0,VALID,93.5391,VALID,0.112286,VALID,22.6264,VALID,10,VALID,0.515625,
2009-10-25, 02:20:04,VALID,999.997,VALID,0,VALID,93.562,VALID,0.112286,VALID,22.6655,VALID,11,VALID,0.742578,
2009-10-25, 02:21:04,VALID,999.968,VALID,0,VALID,93.5849,VALID,0,VALID,22.7045,VALID,29,VALID,0.844922,
2009-10-25, 02:22:04,VALID,999.962,VALID,0,VALID,93.5239,VALID,0,VALID,22.685,VALID,30,VALID,0.846875,
2009-10-25, 02:23:04,VALID,999.95,VALID,0,VALID,93.4628,VALID,0.112286,VALID,22.6655,VALID,36,VALID,0.849219,
2009-10-25, 02:24:04,VALID,999.93,VALID,0,VALID,93.44,VALID,0.112286,VALID,22.6264,VALID,46,VALID,0.995703,
2009-10-25, 02:25:04,VALID,999.913,VALID,0,VALID,93.4476,VALID,0,VALID,22.6087,VALID,54,VALID,0.846484,
2009-10-25, 02:26:04,VALID,999.926,VALID,0,VALID,93.4781,VALID,0,VALID,22.6069,VALID,54,VALID,0.728516,
2009-10-25, 02:27:04,VALID,999.943,VALID,0,VALID,93.4476,VALID,0.112286,VALID,22.5874,VALID,54,VALID,0.470313,
2009-10-25, 02:28:04,VALID,999.979,VALID,0,VALID,93.4552,VALID,0.112286,VALID,22.5679,VALID,54,VALID,0.325781,
2009-10-25, 02:29:04,VALID,999.947,VALID,0,VALID,93.4247,VALID,0.112286,VALID,22.5679,VALID,54,VALID,0.225,
2009-10-25, 02:30:04,VALID,999.98,VALID,0,VALID,93.4018,VALID,0,VALID,22.5306,VALID,54,VALID,0,
2009-10-25, 02:31:04,VALID,999.97,VALID,0,VALID,93.3866,VALID,0,VALID,22.5111,VALID,54,VALID,0,
2009-10-25, 02:32:04,VALID,999.945,VALID,0,VALID,93.4018,VALID,0,VALID,22.4916,VALID,54,VALID,0,
2009-10-25, 02:33:04,VALID,999.956,VALID,0,VALID,93.4171,VALID,0,VALID,22.4526,VALID,54,VALID,0,
2009-10-25, 02:34:04,VALID,999.898,VALID,0,VALID,93.4094,VALID,0,VALID,22.4526,VALID,54,VALID,0,
2009-10-25, 02:35:04,VALID,999.912,VALID,0,VALID,93.44,VALID,0,VALID,22.4526,VALID,54,VALID,0,
2009-10-25, 02:36:04,VALID,999.923,VALID,0,VALID,93.5163,VALID,0,VALID,22.4526,VALID,54,VALID,0.127734,
2009-10-25, 02:37:04,VALID,999.921,VALID,0,VALID,93.5773,VALID,0,VALID,22.4721,VALID,54,VALID,0.240625,
2009-10-25, 02:38:04,VALID,999.98,VALID,0,VALID,93.6154,VALID,0,VALID,22.4916,VALID,54,VALID,0.3,
2009-10-25, 02:39:04,VALID,999.983,VALID,0,VALID,93.6078,VALID,0,VALID,22.5111,VALID,54,VALID,0.253516,
2009-10-25, 02:40:04,VALID,999.977,VALID,0,VALID,93.6078,VALID,0,VALID,22.5111,VALID,54,VALID,0.244922,
2009-10-25, 02:41:04,VALID,999.963,VALID,0,VALID,93.6688,VALID,0,VALID,22.5501,VALID,54,VALID,0.0414063,
2009-10-25, 02:42:04,VALID,999.94,VALID,0,VALID,93.707,VALID,0,VALID,22.6104,VALID,54,VALID,0,
2009-10-25, 02:43:04,VALID,999.899,VALID,0,VALID,93.7146,VALID,0,VALID,22.5874,VALID,54,VALID,0,
2009-10-25, 02:44:04,VALID,999.909,VALID,0,VALID,93.6841,VALID,0,VALID,22.6087,VALID,54,VALID,0,
2009-10-25, 02:45:04,VALID,999.906,VALID,0,VALID,93.6078,VALID,0,VALID,22.5892,VALID,54,VALID,0,
2009-10-25, 02:46:04,VALID,999.89,VALID,0,VALID,93.6307,VALID,0,VALID,22.5892,VALID,54,VALID,0,
2009-10-25, 02:47:04,VALID,999.94,VALID,0,VALID,93.646,VALID,0,VALID,22.6087,VALID,54,VALID,0,
2009-10-25, 02:48:04,VALID,999.969,VALID,0,VALID,93.6536,VALID,0,VALID,22.6299,VALID,54,VALID,0,
2009-10-25, 02:49:04,VALID,1000,VALID,0,VALID,93.6536,VALID,0,VALID,22.6087,VALID,54,VALID,0,
2009-10-25, 02:50:04,VALID,1000,VALID,0,VALID,93.6688,VALID,0,VALID,22.6087,VALID,54,VALID,0,
2009-10-25, 02:51:04,VALID,999.997,VALID,0,VALID,93.6536,VALID,0,VALID,22.5892,VALID,54,VALID,0,
2009-10-25, 02:52:04,VALID,999.976,VALID,0,VALID,93.6994,VALID,0,VALID,22.6282,VALID,54,VALID,0,
2009-10-25, 02:53:04,VALID,999.955,VALID,0,VALID,93.7375,VALID,0,VALID,22.6477,VALID,54,VALID,0,
2009-10-25, 02:54:04,VALID,1000.03,VALID,0,VALID,93.7451,VALID,0,VALID,22.6477,VALID,54,VALID,0,
2009-10-25, 02:55:04,VALID,999.996,VALID,0,VALID,93.7985,VALID,0,VALID,22.6867,VALID,54,VALID,0,
2009-10-25, 02:56:04,VALID,1000.01,VALID,0,VALID,93.6688,VALID,0,VALID,22.6672,VALID,54,VALID,0,
2009-10-25, 02:57:04,VALID,999.978,VALID,0,VALID,93.7375,VALID,0,VALID,22.6672,VALID,54,VALID,0,
2009-10-25, 02:58:04,VALID,999.96,VALID,0,VALID,93.6536,VALID,0,VALID,22.646,VALID,54,VALID,0,
2009-10-25, 02:59:04,VALID,999.945,VALID,0,VALID,93.7375,VALID,0,VALID,22.6672,VALID,81,VALID,0.0808594,
2009-10-25, 03:00:04,VALID,999.98,VALID,0,VALID,93.707,VALID,0,VALID,22.6477,VALID,94,VALID,0.848047,
2009-10-25, 03:01:04,VALID,999.978,VALID,0,VALID,93.646,VALID,0,VALID,22.6477,VALID,94,VALID,0.753125,
2009-10-25, 03:02:04,VALID,1000.02,VALID,0,VALID,93.562,VALID,0,VALID,22.5909,VALID,94,VALID,0.501172,
2009-10-25, 03:03:04,VALID,1000.02,VALID,0,VALID,93.5697,VALID,0,VALID,22.5306,VALID,94,VALID,0.597656,
2009-10-25, 03:04:04,VALID,1000.04,VALID,0,VALID,93.5468,VALID,0,VALID,22.5111,VALID,94,VALID,0.590625,
2009-10-25, 03:05:04,VALID,1000.01,VALID,0,VALID,93.5773,VALID,0,VALID,22.5128,VALID,94,VALID,0.530859,
2009-10-25, 03:06:04,VALID,1000.01,VALID,0,VALID,93.5697,VALID,0,VALID,22.4933,VALID,94,VALID,0.346484,
2009-10-25, 03:07:04,VALID,999.978,VALID,0,VALID,93.5315,VALID,0,VALID,22.4543,VALID,94,VALID,0.553906,
2009-10-25, 03:08:04,VALID,999.984,VALID,0,VALID,93.5468,VALID,0,VALID,22.4348,VALID,94,VALID,0.207031,
2009-10-25, 03:09:04,VALID,1000.01,VALID,0,VALID,93.5163,VALID,0,VALID,22.3746,VALID,94,VALID,0.181641,
2009-10-25, 03:10:04,VALID,1000.01,VALID,0,VALID,93.5239,VALID,0,VALID,22.3763,VALID,94,VALID,0.246484,
2009-10-25, 03:11:04,VALID,999.981,VALID,0,VALID,93.4705,VALID,0,VALID,22.3373,VALID,69,VALID,0.569922,
2009-10-25, 03:12:04,VALID,999.966,VALID,0,VALID,93.5697,VALID,0,VALID,22.3373,VALID,21,VALID,0.808203,
2009-10-25, 03:13:04,VALID,999.911,VALID,0,VALID,93.7375,VALID,0,VALID,22.3958,VALID,20,VALID,0.747656,
2009-10-25, 03:14:04,VALID,999.929,VALID,0,VALID,93.7833,VALID,0,VALID,22.4331,VALID,20,VALID,0.559375,
2009-10-25, 03:15:04,VALID,999.95,VALID,0,VALID,93.7299,VALID,0,VALID,22.4543,VALID,20,VALID,0.214062,
2009-10-25, 03:16:04,VALID,999.975,VALID,0,VALID,93.7375,VALID,0,VALID,22.4348,VALID,20,VALID,0.237109,
2009-10-25, 03:17:04,VALID,999.992,VALID,0,VALID,93.8367,VALID,0,VALID,22.4721,VALID,20,VALID,0.470703,
2009-10-25, 03:18:04,VALID,1000,VALID,0,VALID,93.7909,VALID,0,VALID,22.4916,VALID,20,VALID,0.430859,
2009-10-25, 03:19:04,VALID,999.981,VALID,0,VALID,93.7299,VALID,0,VALID,22.4933,VALID,21,VALID,0.620703,
2009-10-25, 03:20:04,VALID,999.982,VALID,0,VALID,93.7299,VALID,0,VALID,22.4543,VALID,24,VALID,0.980859,
2009-10-25, 03:21:04,VALID,999.982,VALID,0,VALID,93.768,VALID,0,VALID,22.4331,VALID,24,VALID,0.880859,
2009-10-25, 03:22:04,VALID,999.957,VALID,0,VALID,93.5468,VALID,0,VALID,22.3568,VALID,24,VALID,0.925781,
2009-10-25, 03:23:04,VALID,999.982,VALID,0,VALID,93.6002,VALID,0,VALID,22.3178,VALID,24,VALID,0.947656,
2009-10-25, 03:24:04,VALID,1000,VALID,0,VALID,93.5926,VALID,0,VALID,22.2983,VALID,24,VALID,0.866406,
2009-10-25, 03:25:04,VALID,1000.04,VALID,0,VALID,93.5773,VALID,0,VALID,22.2788,VALID,24,VALID,0.880469,
2009-10-25, 03:26:04,VALID,1000.09,VALID,0,VALID,93.6383,VALID,0,VALID,22.2788,VALID,24,VALID,0.871094,
2009-10-25, 03:27:04,VALID,1000.07,VALID,0,VALID,93.6688,VALID,0,VALID,22.2592,VALID,24,VALID,0.743359,
2009-10-25, 03:28:04,VALID,1000.1,VALID,0,VALID,93.7604,VALID,0,VALID,22.2966,VALID,25,VALID,0.625391,
2009-10-25, 03:29:04,VALID,1000.08,VALID,0,VALID,93.7757,VALID,0,VALID,22.3551,VALID,25,VALID,0.41875,
2009-10-25, 03:30:04,VALID,1000.07,VALID,0,VALID,93.7833,VALID,0,VALID,22.3551,VALID,25,VALID,0.396875,
2009-10-25, 03:31:04,VALID,1000.04,VALID,0,VALID,93.768,VALID,0,VALID,22.3958,VALID,25,VALID,0.290625,
2009-10-25, 03:32:04,VALID,1000.02,VALID,0,VALID,93.7985,VALID,0,VALID,22.4153,VALID,25,VALID,0,
2009-10-25, 03:33:04,VALID,1000.04,VALID,0,VALID,93.7833,VALID,0,VALID,22.4331,VALID,25,VALID,0,
2009-10-25, 03:34:04,VALID,1000.07,VALID,0,VALID,93.768,VALID,0,VALID,22.4543,VALID,25,VALID,0,
2009-10-25, 03:35:04,VALID,1000.07,VALID,0,VALID,93.7528,VALID,0,VALID,22.4526,VALID,25,VALID,0,
2009-10-25, 03:36:04,VALID,1000.07,VALID,0,VALID,93.7375,VALID,0,VALID,22.4526,VALID,25,VALID,0,
2009-10-25, 03:37:04,VALID,1000.1,VALID,0,VALID,93.7451,VALID,0,VALID,22.5128,VALID,25,VALID,0,
2009-10-25, 03:38:04,VALID,1000.13,VALID,0,VALID,93.7528,VALID,0,VALID,22.5111,VALID,25,VALID,0,
2009-10-25, 03:39:04,VALID,1000.14,VALID,0,VALID,93.7528,VALID,0,VALID,22.5501,VALID,25,VALID,0,
2009-10-25, 03:40:04,VALID,1000.16,VALID,0,VALID,93.707,VALID,0,VALID,22.5714,VALID,25,VALID,0,
2009-10-25, 03:41:04,VALID,1000.16,VALID,0,VALID,93.6994,VALID,0,VALID,22.5714,VALID,25,VALID,0,
2009-10-25, 03:42:04,VALID,1000.15,VALID,0,VALID,93.6841,VALID,0,VALID,22.5714,VALID,25,VALID,0,
2009-10-25, 03:43:04,VALID,1000.12,VALID,0,VALID,93.6841,VALID,0,VALID,22.5696,VALID,25,VALID,0,
2009-10-25, 03:44:04,VALID,1000.16,VALID,0,VALID,93.6154,VALID,0,VALID,22.5519,VALID,25,VALID,0,
2009-10-25, 03:45:04,VALID,1000.15,VALID,0,VALID,93.5086,VALID,0,VALID,22.5128,VALID,25,VALID,0,
2009-10-25, 03:46:04,VALID,1000.17,VALID,0,VALID,93.562,VALID,0,VALID,22.4916,VALID,25,VALID,0,
2009-10-25, 03:47:04,VALID,1000.19,VALID,0,VALID,93.5926,VALID,0,VALID,22.4916,VALID,25,VALID,0,
2009-10-25, 03:48:04,VALID,1000.21,VALID,0,VALID,93.5697,VALID,0,VALID,22.4916,VALID,25,VALID,0,